Main page
METAR-TAF:

METAR-TAF

Airports :

Georgetown Municipal Airport

Georgetown, Texas, United States

latitude: 30-41N, longitude: 097-41W, elevation: 787 ft

Current weather observation

The report was made 58 minutes ago, at 22:56 UTC
Wind 6 mph from the West
Temperature 72°F
Humidity 20%
Pressure 29.77 in. Hg
Visibility: 10 miles
Clear sky

METAR: KGTU 252256Z 28005KT 10SM CLR 22/M02 A2977 RMK AO2 SLP077 T02221017

Time: 17:54 (23:54 UTC)


TAF: missing

Weather observations and forecasts of more than 4000 airports (METAR and TAF reports).

The available stations are represented by yellow and red dots on the map.

Hover mouse over dot to see the name of the station.

Then click to see weather observations and forecasts.

To change the map : click on the green buttons with a black cross to zoom in, on the green button with a dash to zoom out, or on the green arrows for adjacent maps.


METAR-TAF: